Location: Cardiff
(53.7833°N, 113.6000°W)
Time: 20:44:41
(UTC+00:00)

Oscar 19 - Pass Details

Date: 12 December 2023
Orbit: 771 x 789 km, 98.9° (Epoch: 04 March)

Event Time Altitude Azimuth Distance (km) Brightness Sun altitude
Rises 13:10:23 0° 13° (NNE) 3,279 13.9 -21.0°
Reaches altitude 10° 13:12:44 10° 10° (N) 2,350 13.1 -20.6°
Maximum altitude 13:17:47 56° 294° (WNW) 938 10.7 -19.9°
Drops below altitude 10° 13:22:50 10° 217° (SW) 2,345 12.9 -19.2°
Sets 13:25:10 0° 213° (SSW) 3,272 13.7 -18.8°
